AFL644 ULAA-UUEE

Flight info

Callsign AFL644
Flight time N/A
Altitude 34000
Route ABELU T825 UREPI P65 ROMTA
Aircraft B738/M-SDE2E3FGHIRWXY/LB1

Departure

Time 2026-04-25 16:33
Airport Talagi Airport (ULAA)

Arrival

Time N/A
Airport Sheremetyevo International Airport (UUEE)
Time Latitude Longitude Altitude Speed Heading
2026-04-25 16:14 64.59663 40.71480 39 ft 0 kts 186°
2026-04-25 16:23 64.59673 40.71482 39 ft 2 kts 189°
2026-04-25 16:23 64.59689 40.71486 36 ft 2 kts 190°
2026-04-25 16:23 64.59701 40.71487 38 ft 2 kts 178°
2026-04-25 16:24 64.59713 40.71480 39 ft 2 kts 111°
2026-04-25 16:24 64.59715 40.71467 39 ft 0 kts 89°
2026-04-25 16:28 64.59715 40.71475 39 ft 2 kts 90°
2026-04-25 16:28 64.59713 40.71548 39 ft 7 kts 95°
2026-04-25 16:28 64.59713 40.71688 39 ft 11 kts 66°
2026-04-25 16:28 64.59785 40.71759 39 ft 12 kts 18°
2026-04-25 16:29 64.59804 40.71914 39 ft 11 kts 96°
2026-04-25 16:29 64.59794 40.72109 38 ft 14 kts 96°
2026-04-25 16:29 64.59783 40.72368 39 ft 18 kts 96°
2026-04-25 16:29 64.59767 40.72680 38 ft 21 kts 97°
2026-04-25 16:30 64.59749 40.73024 39 ft 23 kts 96°
2026-04-25 16:30 64.59732 40.73404 39 ft 24 kts 96°
2026-04-25 16:30 64.59704 40.73805 39 ft 25 kts 98°
2026-04-25 16:30 64.59688 40.74131 39 ft 13 kts 84°
2026-04-25 16:31 64.59723 40.74184 39 ft 6 kts 10°
2026-04-25 16:31 64.59769 40.74199 39 ft 8 kts
2026-04-25 16:31 64.59833 40.74217 38 ft 11 kts
2026-04-25 16:31 64.59905 40.74130 34 ft 15 kts 291°
2026-04-25 16:32 64.59911 40.74039 34 ft 0 kts 277°
2026-04-25 16:32 64.59912 40.74026 31 ft 1 kts 277°
2026-04-25 16:32 64.59915 40.73965 33 ft 9 kts 277°
2026-04-25 16:32 64.59948 40.73320 36 ft 78 kts 276°
2026-04-25 16:33 64.60038 40.71490 38 ft 147 kts 277°
2026-04-25 16:33 64.60166 40.68857 461 ft 169 kts 277°
2026-04-25 16:33 64.60303 40.66071 1370 ft 176 kts 276°
2026-04-25 16:33 64.60451 40.63162 2114 ft 190 kts 276°
2026-04-25 16:34 64.60607 40.59930 2466 ft 211 kts 275°
2026-04-25 16:34 64.60770 40.56345 2735 ft 236 kts 275°
2026-04-25 16:34 64.60953 40.52424 3363 ft 247 kts 275°
2026-04-25 16:34 64.61142 40.48485 4300 ft 248 kts 274°
2026-04-25 16:35 64.61116 40.45781 4889 ft 249 kts 256°
2026-04-25 16:35 64.59974 40.41251 6048 ft 250 kts 220°
2026-04-25 16:35 64.58432 40.39313 6827 ft 258 kts 197°
2026-04-25 16:35 64.56641 40.38595 7608 ft 264 kts 189°
2026-04-25 16:36 64.55425 40.38274 8139 ft 267 kts 188°
2026-04-25 16:36 64.54165 40.37976 8683 ft 270 kts 188°
2026-04-25 16:36 64.51655 40.37400 9715 ft 277 kts 188°
2026-04-25 16:36 64.49674 40.36936 10024 ft 299 kts 188°
2026-04-25 16:37 64.47526 40.36420 10218 ft 322 kts 188°
2026-04-25 16:37 64.45235 40.35861 10595 ft 337 kts 188°
2026-04-25 16:37 64.42879 40.35285 11269 ft 342 kts 188°
2026-04-25 16:37 64.40497 40.34700 12029 ft 346 kts 188°
2026-04-25 16:38 64.38092 40.34105 12774 ft 350 kts 189°
2026-04-25 16:38 64.35655 40.33499 13464 ft 354 kts 189°
2026-04-25 16:38 64.33186 40.32884 14103 ft 358 kts 189°
2026-04-25 16:38 64.30694 40.32263 14755 ft 362 kts 189°
2026-04-25 16:39 64.28173 40.31635 15397 ft 366 kts 190°
2026-04-25 16:39 64.25658 40.31009 16018 ft 370 kts 190°
2026-04-25 16:39 64.23081 40.30368 16641 ft 374 kts 190°
2026-04-25 16:39 64.20470 40.29721 17272 ft 378 kts 191°
2026-04-25 16:40 64.17834 40.29068 17871 ft 383 kts 191°
2026-04-25 16:40 64.15171 40.28410 18399 ft 386 kts 191°
2026-04-25 16:40 64.12488 40.27749 18947 ft 389 kts 191°
2026-04-25 16:40 64.09781 40.27084 19470 ft 393 kts 191°
2026-04-25 16:41 64.07044 40.26412 20008 ft 396 kts 192°
2026-04-25 16:41 64.05226 40.25966 20355 ft 398 kts 192°
2026-04-25 16:41 63.98754 40.24384 21522 ft 406 kts 192°
2026-04-25 16:42 63.95928 40.23696 22008 ft 409 kts 192°
2026-04-25 16:42 63.93084 40.23005 22487 ft 413 kts 192°
2026-04-25 16:42 63.90217 40.22310 22967 ft 416 kts 193°
2026-04-25 16:42 63.87329 40.21612 23368 ft 419 kts 192°
2026-04-25 16:43 63.84420 40.20910 23752 ft 421 kts 192°
2026-04-25 16:43 63.81496 40.20207 24145 ft 424 kts 192°
2026-04-25 16:43 63.78550 40.19499 24513 ft 426 kts 192°
2026-04-25 16:43 63.75589 40.18788 24874 ft 429 kts 192°
2026-04-25 16:44 63.72625 40.17904 25216 ft 427 kts 198°
2026-04-25 16:44 63.69789 40.15984 25563 ft 425 kts 204°
2026-04-25 16:44 63.67037 40.13768 25914 ft 426 kts 205°
2026-04-25 16:44 63.64247 40.11470 26250 ft 429 kts 205°
2026-04-25 16:45 63.61426 40.09191 26574 ft 432 kts 204°
2026-04-25 16:45 63.58580 40.06954 26891 ft 434 kts 204°
2026-04-25 16:45 63.55710 40.04746 27208 ft 437 kts 203°
2026-04-25 16:45 63.52821 40.02551 27522 ft 439 kts 203°
2026-04-25 16:46 63.49917 40.00354 27825 ft 441 kts 203°
2026-04-25 16:46 63.46995 39.98147 28114 ft 444 kts 202°
2026-04-25 16:46 63.44063 39.95927 28423 ft 445 kts 203°
2026-04-25 16:46 63.42136 39.94372 28681 ft 444 kts 204°
2026-04-25 16:47 63.38291 39.91054 29288 ft 441 kts 205°
2026-04-25 16:47 63.35440 39.88522 29670 ft 441 kts 205°
2026-04-25 16:47 63.32627 39.86022 29942 ft 442 kts 205°
2026-04-25 16:47 63.29761 39.83493 30215 ft 442 kts 205°
2026-04-25 16:48 63.26889 39.80982 30524 ft 442 kts 205°
2026-04-25 16:48 63.24024 39.78499 30831 ft 442 kts 205°
2026-04-25 16:48 63.21155 39.76026 31109 ft 442 kts 205°
2026-04-25 16:48 63.18283 39.73562 31388 ft 442 kts 205°
2026-04-25 16:49 63.15444 39.71133 31658 ft 442 kts 205°
2026-04-25 16:49 63.12574 39.68684 31947 ft 442 kts 205°
2026-04-25 16:49 63.09701 39.66239 32221 ft 442 kts 205°
2026-04-25 16:49 63.06820 39.63789 32479 ft 443 kts 205°
2026-04-25 16:50 63.03944 39.61350 32743 ft 443 kts 205°
2026-04-25 16:50 63.01062 39.58911 33022 ft 443 kts 205°
2026-04-25 16:50 62.98184 39.56480 33276 ft 443 kts 205°
2026-04-25 16:50 62.95301 39.54049 33498 ft 444 kts 204°
2026-04-25 16:51 62.89539 39.49204 33518 ft 448 kts 204°
2026-04-25 16:51 62.84657 39.45120 33510 ft 445 kts 204°
2026-04-25 16:52 62.77981 39.39559 33520 ft 441 kts 204°
2026-04-25 16:52 62.72243 39.34797 33522 ft 441 kts 204°
2026-04-25 16:53 62.63653 39.27703 33512 ft 445 kts 203°
2026-04-25 16:54 62.57788 39.22883 33533 ft 454 kts 203°
2026-04-25 16:54 62.51804 39.17988 33540 ft 463 kts 203°
2026-04-25 16:55 62.45719 39.13033 33534 ft 470 kts 203°
2026-04-25 16:55 62.39610 39.08085 33521 ft 472 kts 203°
2026-04-25 16:56 62.33443 39.03110 33528 ft 473 kts 203°
2026-04-25 16:56 62.27253 38.98137 33518 ft 474 kts 203°
2026-04-25 16:57 62.21105 38.93218 33528 ft 473 kts 203°
2026-04-25 16:57 62.14923 38.88294 33521 ft 473 kts 203°
2026-04-25 16:58 62.08755 38.83402 33529 ft 472 kts 203°
2026-04-25 16:58 62.02638 38.78571 33523 ft 471 kts 203°
2026-04-25 16:59 61.96480 38.73725 33528 ft 471 kts 203°
2026-04-25 16:59 61.90372 38.69304 33507 ft 452 kts 195°
2026-04-25 16:59 61.87342 38.68039 33523 ft 438 kts 194°
2026-04-25 17:00 61.84348 38.66852 33528 ft 436 kts 194°
2026-04-25 17:00 61.78345 38.64357 33545 ft 444 kts 195°
2026-04-25 17:01 61.72230 38.61758 33526 ft 449 kts 195°
2026-04-25 17:01 61.66087 38.59167 33525 ft 451 kts 195°
2026-04-25 17:02 61.59969 38.56598 33529 ft 451 kts 195°
2026-04-25 17:02 61.53795 38.54016 33525 ft 450 kts 194°
2026-04-25 17:03 61.47648 38.51454 33524 ft 449 kts 194°
2026-04-25 17:03 61.41555 38.48925 33525 ft 448 kts 194°
2026-04-25 17:04 61.35432 38.46393 33526 ft 447 kts 194°
2026-04-25 17:04 61.29336 38.43880 33525 ft 446 kts 194°
2026-04-25 17:05 61.23233 38.41442 33525 ft 446 kts 191°
2026-04-25 17:05 61.13987 38.39397 33528 ft 447 kts 189°
2026-04-25 17:06 61.07789 38.38185 33524 ft 447 kts 189°
2026-04-25 17:06 61.01581 38.36909 33528 ft 447 kts 189°
2026-04-25 17:07 60.95426 38.35615 33531 ft 447 kts 189°
2026-04-25 17:07 60.89215 38.34306 33524 ft 448 kts 189°
2026-04-25 17:08 60.83004 38.33003 33532 ft 448 kts 189°
2026-04-25 17:08 60.76831 38.31715 33533 ft 448 kts 189°
2026-04-25 17:09 60.70616 38.30423 33531 ft 448 kts 189°
2026-04-25 17:09 60.64410 38.29139 33522 ft 448 kts 189°
2026-04-25 17:10 60.58213 38.27862 33537 ft 447 kts 190°
2026-04-25 17:10 60.52023 38.26590 33533 ft 446 kts 190°
2026-04-25 17:11 60.45882 38.25334 33532 ft 445 kts 190°
2026-04-25 17:11 60.39718 38.24077 33534 ft 444 kts 190°
2026-04-25 17:12 60.33571 38.22828 33537 ft 443 kts 190°
2026-04-25 17:12 60.27431 38.21585 33533 ft 442 kts 190°
2026-04-25 17:13 60.23333 38.20758 33535 ft 442 kts 190°
2026-04-25 17:13 60.15200 38.19116 33541 ft 440 kts 190°
2026-04-25 17:14 60.09142 38.17897 33541 ft 439 kts 190°
2026-04-25 17:14 60.03051 38.16676 33545 ft 439 kts 190°
2026-04-25 17:15 59.96970 38.15461 33548 ft 438 kts 190°
2026-04-25 17:15 59.90893 38.14252 33549 ft 438 kts 190°
2026-04-25 17:16 59.84853 38.13054 33552 ft 438 kts 190°
2026-04-25 17:16 59.78773 38.11853 33553 ft 438 kts 190°
2026-04-25 17:17 59.72699 38.10655 33555 ft 438 kts 190°
2026-04-25 17:17 59.66664 38.09470 33555 ft 438 kts 190°
2026-04-25 17:18 59.60586 38.08287 33564 ft 439 kts 190°
2026-04-25 17:18 59.54493 38.07105 33561 ft 439 kts 190°
2026-04-25 17:19 59.48394 38.05925 33567 ft 439 kts 190°
2026-04-25 17:19 59.42351 38.04760 33582 ft 439 kts 190°
2026-04-25 17:20 59.36265 38.03590 33586 ft 439 kts 190°
2026-04-25 17:20 59.30109 38.02408 33590 ft 449 kts 188°
2026-04-25 17:21 59.23803 38.01260 33592 ft 460 kts 188°
2026-04-25 17:21 59.17355 38.00224 33586 ft 470 kts 187°
2026-04-25 17:22 59.13012 37.99536 33592 ft 474 kts 187°
2026-04-25 17:22 59.04225 37.98123 33575 ft 477 kts 187°
2026-04-25 17:23 58.98709 37.97232 33573 ft 475 kts 187°
2026-04-25 17:23 58.92168 37.96179 33566 ft 466 kts 187°
2026-04-25 17:24 58.85698 37.95137 33586 ft 467 kts 187°
2026-04-25 17:24 58.79211 37.94103 33580 ft 468 kts 187°
2026-04-25 17:25 58.72753 37.93080 33585 ft 468 kts 187°